Weather History for MMAA - October, 2012

Change the Weather History Date:

Friday, October 12, 2012

  Actual Average Record
Temperature  
Mean Temperature 84 °F -  
Max Temperature 91 °F 90 °F 95 °F (2013)
Min Temperature 78 °F 75 °F 73 °F (1998)
Cooling Degree Days 20    
Growing Degree Days 34 (Base 50)    
Moisture  
Dew Point 76 °F    
Average Humidity 78    
Maximum Humidity 90    
Minimum Humidity 66    
Precipitation  
Precipitation 0.00 in 0.14 in - ()
Sea Level Pressure  
Sea Level Pressure 29.90 in    
Wind  
Wind Speed 2 mph ()    
Max Wind Speed 10 mph    
Max Gust Speed -    
Visibility 8.2 miles    
Events Rain    
Averages and records for this station are not official NWS values.
T = Trace of Precipitation, MM = Missing Value Source: Averaged Metar Reports

Daily Weather History Graph

Daily Weather History Graph

Search for Another Location

Airport or City:

Trip Planner

Search our weather history database for the weather conditions in past years. The results will help you decide how hot, cold, wet, or windy it might be!

Date:

Astronomy

Oct. 12, 2012 Rise Set
Actual Time 7:31 AM CDT 7:19 PM CDT
Civil Twilight 7:09 AM CDT 7:41 PM CDT
Nautical Twilight 6:44 AM CDT 8:06 PM CDT
Astronomical Twilight 6:19 AM CDT 8:31 PM CDT
Moon 4:40 AM CDT (10/12) 5:10 PM CDT (10/12)
Length of Visible Light 12h 31m
Length of Day
11h 48m
Waning Crescent, 10% of the Moon is Illuminated
Oct 12
Waning Crescent
Oct 15
New
Oct 21
First Quarter
Oct 29
Full
Nov 6
Last Quarter

Hourly Weather History & Observations

Time (CDT) Temp. Heat Index Dew Point Humidity Pressure Visibility Wind Dir Wind Speed Gust Speed Precip Events Conditions
12:45 AM 82.4 °F 88.2 °F 73.4 °F 74% 29.91 in 8.0 mi Calm Calm - N/A   Mostly Cloudy
12:50 AM 81 °F - 77 °F 85% 29.92 in 6 mi SE 2.2 mph - -   Partly Cloudy
1:45 AM 82.4 °F 88.2 °F 73.4 °F 74% 29.90 in 8.0 mi Calm Calm - N/A   Mostly Cloudy
2:56 AM 82.4 °F 88.2 °F 73.4 °F 74% 29.90 in 8.0 mi Calm Calm - N/A   Mostly Cloudy
3:42 AM 80.6 °F 86.2 °F 75.2 °F 84% 29.86 in 8.0 mi Calm Calm - N/A   Mostly Cloudy
3:50 AM 80 °F - 77 °F 87% 29.85 in 6 mi ENE 2.2 mph - -   Partly Cloudy
4:50 AM 80.6 °F 86.2 °F 75.2 °F 84% 29.84 in 8.0 mi Calm Calm - N/A   Mostly Cloudy
5:45 AM 80.6 °F 86.2 °F 75.2 °F 84% 29.84 in 8.0 mi Calm Calm - N/A   Mostly Cloudy
6:47 AM 80.6 °F 86.2 °F 75.2 °F 84% 29.86 in 8.0 mi Calm Calm - N/A   Overcast
6:50 AM 79 °F - 77 °F 90% 29.86 in 6 mi WSW 2.2 mph - -   Partly Cloudy
7:46 AM 80.6 °F 86.2 °F 75.2 °F 84% 29.88 in 8.0 mi Calm Calm - N/A   Overcast
8:41 AM 80.6 °F 86.2 °F 75.2 °F 84% 29.91 in 8.0 mi Calm Calm - N/A   Overcast
9:45 AM 80.6 °F 86.2 °F 75.2 °F 84% 29.97 in 8.0 mi SW 9.2 mph - N/A   Overcast
9:50 AM 80 °F - 76 °F 84% 29.96 in 11 mi SW 6.7 mph - - Rain Light Drizzle
10:42 AM 82.4 °F 90.9 °F 77.0 °F 84% 29.95 in 8.0 mi Calm Calm - N/A   Overcast
11:42 AM 84.2 °F 92.3 °F 75.2 °F 74% 29.95 in 8.0 mi WSW 6.9 mph - N/A   Overcast
12:42 PM 87.8 °F 97.6 °F 75.2 °F 66% 29.93 in 8.0 mi WSW 6.9 mph - N/A   Overcast
1:00 PM 87 °F - 78 °F 68% 29.94 in 12 mi WSW 2.2 mph - -   Overcast
1:45 PM 87.8 °F 99.7 °F 77.0 °F 70% 29.91 in 8.0 mi WSW 5.8 mph - N/A   Overcast
2:45 PM 87.8 °F 99.7 °F 77.0 °F 70% 29.88 in 8.0 mi Calm Calm - N/A   Mostly Cloudy
3:44 PM 89.6 °F 104.7 °F 78.8 °F 70% 29.87 in 8.0 mi WSW 8.1 mph - N/A   Mostly Cloudy
3:50 PM 88 °F - 78 °F 66% 29.87 in 12 mi SW 4.5 mph - -   Scattered Clouds
4:42 PM 89.6 °F 104.7 °F 78.8 °F 70% 29.85 in 8.0 mi WSW 10.4 mph - N/A   Mostly Cloudy
5:43 PM 87.8 °F 99.7 °F 77.0 °F 70% 29.84 in 8.0 mi WSW 6.9 mph - N/A   Mostly Cloudy
6:50 PM 86 °F - 79 °F 75% 29.88 in 12 mi NNW 4.5 mph - -   Scattered Clouds
6:50 PM 86.0 °F 96.9 °F 77.0 °F 74% 29.83 in 8.0 mi WSW 8.1 mph - N/A   Mostly Cloudy
7:51 PM 86.0 °F 96.9 °F 77.0 °F 74% 29.88 in 8.0 mi Calm Calm - N/A   Mostly Cloudy
8:48 PM 84.2 °F 92.3 °F 75.2 °F 74% 29.89 in 8.0 mi West 6.9 mph - N/A   Mostly Cloudy
9:44 PM 84.2 °F 92.3 °F 75.2 °F 74% 29.92 in 8.0 mi Calm Calm - N/A   Mostly Cloudy
9:50 PM 83 °F - 78 °F 79% 29.92 in 6 mi East 4.5 mph - -   Scattered Clouds
10:45 PM 82.4 °F 90.9 °F 77.0 °F 84% 29.94 in 8.0 mi Calm Calm - N/A   Mostly Cloudy
11:45 PM 82.4 °F 90.9 °F 77.0 °F 84% 29.94 in 8.0 mi Calm Calm - N/A   Mostly Cloudy